Home > Weather > Makkah > Past weeks

Flag for Saudi Arabia Weather for the Past 2 Weeks in Makkah, Saudi Arabia

Now
106 °F

Scattered clouds.


Feels Like: N/A
Forecast: 82 / 107 °F
Wind: 2 mph from Northwest

Location: Mecca Airport

Current Time: May 6, 2016 at 3:08:40 PM

Latest Report: May 6, 2016 at 2:00 PM


Visibility: N/A

Pressure: 29.77 "Hg

Humidity: 64%

Dew Point: 91 °F

Location of MakkahLocation

Historic Weather in Makkah — Graph

°F

Makkah Temperature Yesterday

Maximum temperature yesterday: 106 °F (at 1:00 PM)
Minimum temperature yesterday: 86 °F (at 6:00 AM)
Average temperature yesterday: 95 °F

High & Low Weather Summary for the Past Weeks

 TemperatureHumidityPressure
High111 °F (May 3, 2:00 PM)79% (Apr 29, 11:00 PM)29.89 "Hg (Apr 29, 11:00 PM)
Low75 °F (Apr 29, 3:00 PM)28% (May 4, 12:00 PM)29.65 "Hg (Apr 24, 4:00 PM)
Average94 °F49%29.77 "Hg
* Reported Apr 21 2:00 PM — May 6 2:00 PM, Makkah, Weather by CustomWeather, © 2016

Note: Actual official high and low records may vary slightly from our data, if they occured in-between our weather recording intervals... More about our weather records

Advertising

Makkah Weather History for the Previous 24 Hours

Scroll right to see more
 ConditionsComfort  
Time TempWeatherWind HumidityBarometerVisibility
2:00 PM
Fri, May 6
106 °FScattered clouds.2 mph64%29.77 "HgN/A
1:00 PM104 °FScattered clouds.5 mph64%29.80 "HgN/A
12:00 PM102 °FPassing clouds.2 mph51%29.83 "HgN/A
11:00 AM100 °FSunny.2 mph47%29.83 "Hg10 mi
10:00 AM99 °FSunny.2 mph47%29.83 "Hg10 mi
9:00 AM95 °FSunny.No wind50%29.83 "Hg10 mi
8:00 AM91 °FPassing clouds.No wind56%29.80 "HgN/A
7:00 AM90 °FScattered clouds.No wind63%29.80 "HgN/A
6:00 AM90 °FScattered clouds.No wind63%29.80 "HgN/A
5:00 AM90 °FPassing clouds.No wind63%29.77 "HgN/A
4:00 AM90 °FClear.No wind63%29.77 "Hg10 mi
3:00 AM91 °FClear.No wind63%29.77 "Hg10 mi
1:00 AM91 °FClear.No wind63%29.80 "Hg10 mi
12:00 AM93 °FClear.No wind56%29.83 "Hg10 mi
11:00 PM
Thu, May 5
93 °FClear.No wind53%29.83 "Hg10 mi
10:00 PM93 °FClear.No wind53%29.83 "Hg10 mi
9:00 PM93 °FClear.2 mph59%29.80 "Hg10 mi
8:00 PM93 °FClear.2 mph59%29.80 "Hg10 mi
7:00 PM95 °FPassing clouds.3 mph53%29.77 "HgN/A
6:00 PM97 °FPartly sunny.10 mph50%29.77 "HgN/A
5:00 PM100 °FScattered clouds.6 mph40%29.74 "HgN/A
4:00 PM104 °FSunny.3 mph40%29.71 "Hg10 mi
3:00 PM104 °FScattered clouds.5 mph38%29.74 "HgN/A
Weather by CustomWeather, © 2016

See weather overviewHow to use our weather pages